Edwards AFB North Base, CA

12:33 AM PST on December 06, 2019 (GMT -0800)
Edwards AFB North Base

Weather History for K9L2 - May, 2019

Change the Weather History Date:

Sunday, May 5, 2019

  Actual Average (WUND) Record (WUND)
Temperature  
Mean Temperature 66 °F -  
Max Temperature 77 °F - - (-1)
Min Temperature 55 °F - - (-1)
Cooling Degree Days 1    
Growing Degree Days 16 (Base 50)    
Moisture  
Dew Point 38 °F    
Average Humidity 39    
Maximum Humidity 68    
Minimum Humidity 11    
Precipitation  
Precipitation 0.00 in - - ()
Sea Level Pressure  
Sea Level Pressure 29.72 in    
Wind  
Wind Speed 19 mph (SSW)    
Max Wind Speed 28 mph    
Max Gust Speed 36 mph    
Visibility 7 miles    
Events      
Averages and records for this station are not official NWS values.
T = Trace of Precipitation, MM = Missing Value Source: NWS Daily Summary

Daily Weather History Graph

Daily Weather History Graph

Search for Another Location

Airport or City:

Astronomy

May. 05, 2019 Rise Set
Actual Time 5:56 AM PDT 7:40 PM PDT
Civil Twilight 5:29 AM PDT 8:07 PM PDT
Nautical Twilight 4:56 AM PDT 8:40 PM PDT
Astronomical Twilight 4:21 AM PDT 9:15 PM PDT
Moon 6:42 AM PDT (5/5) 8:38 PM PDT (5/5)
Length of Visible Light 14h 38m
Length of Day
13h 43m
New Moon, 1% of the Moon is Illuminated
May 5
New Moon
May 11
First Quarter
May 18
Full
May 26
Last Quarter
Jun 3
New

Hourly Weather History & Observations

Time (PDT) Temp. Dew Point Humidity Pressure Visibility Wind Dir Wind Speed Gust Speed Precip Events Conditions
12:58 AM 61.2 °F 44.4 °F 54% 29.74 in 9.0 mi SSW 16.1 mph 25.3 mph N/A   Clear
1:58 AM 60.1 °F 45.1 °F 58% 29.73 in 9.0 mi SSW 17.3 mph 24.2 mph N/A   Clear
2:58 AM 58.6 °F 46.6 °F 64% 29.72 in 8.0 mi SSW 18.4 mph - N/A   Clear
3:58 AM 57.2 °F 46.8 °F 68% 29.72 in 9.0 mi SSW 13.8 mph - N/A   Clear
4:58 AM 56.7 °F 45.7 °F 67% 29.73 in 9.0 mi SSW 15.0 mph - N/A   Clear
5:58 AM 55.9 °F 45.5 °F 68% 29.73 in 7.0 mi SSW 15.0 mph 23.0 mph N/A   Clear
6:58 AM 56.7 °F 43.9 °F 62% 29.75 in 7.0 mi SSW 18.4 mph 25.3 mph N/A   Clear
7:58 AM 59.9 °F 43.2 °F 54% 29.76 in 8.0 mi SSW 18.4 mph 27.6 mph N/A   Clear
8:58 AM 64.4 °F 39.0 °F 39% 29.75 in 8.0 mi SSW 19.6 mph 28.8 mph N/A   Clear
9:58 AM 70.0 °F 35.6 °F 28% 29.75 in 7.0 mi South 16.1 mph 21.9 mph N/A   Clear
10:13 AM 71.6 °F 37.4 °F 29% 29.74 in 7.0 mi South 17.3 mph - N/A   Clear
10:43 AM 73.4 °F 32.0 °F 22% 29.74 in 6.0 mi South 20.7 mph - N/A   Haze
10:58 AM 74.3 °F 25.5 °F 16% 29.73 in 6.0 mi SSW 18.4 mph 23.0 mph N/A   Haze
11:58 AM 76.8 °F 18.7 °F 11% 29.73 in 7.0 mi SSW 24.2 mph 28.8 mph N/A   Clear
12:13 PM 75.2 °F 15.8 °F 11% 29.72 in 6.0 mi SSW 21.9 mph 28.8 mph N/A   Haze
12:43 PM 77.0 °F 17.6 °F 11% 29.72 in 7.0 mi South 20.7 mph 25.3 mph N/A   Clear
12:58 PM 77.0 °F 18.9 °F 11% 29.70 in 6.0 mi South 20.7 mph 27.6 mph N/A   Haze
1:13 PM 77.0 °F 19.4 °F 12% 29.70 in 7.0 mi SSW 20.7 mph 28.8 mph N/A   Partly Cloudy
1:58 PM 76.3 °F 34.0 °F 21% 29.70 in 6.0 mi SSW 24.2 mph 29.9 mph N/A   Haze
2:43 PM 77.0 °F 39.2 °F 26% 29.70 in 7.0 mi SSW 21.9 mph 33.4 mph N/A   Clear
2:58 PM 76.3 °F 39.0 °F 26% 29.70 in 6.0 mi SSW 24.2 mph 32.2 mph N/A   Haze
3:13 PM 77.0 °F 37.4 °F 24% 29.69 in 7.0 mi SSW 24.2 mph 33.4 mph N/A   Clear
3:43 PM 75.2 °F 37.4 °F 25% 29.69 in 6.0 mi SSW 24.2 mph 33.4 mph N/A   Haze
3:58 PM 75.2 °F 40.1 °F 28% 29.69 in 6.0 mi SSW 20.7 mph 31.1 mph N/A   Haze
4:58 PM 71.8 °F 43.7 °F 36% 29.69 in 7.0 mi SSW 27.6 mph 33.4 mph N/A   Clear
5:43 PM 69.8 °F 42.8 °F 38% 29.69 in 6.0 mi SSW 27.6 mph 35.7 mph N/A   Haze
5:58 PM 69.4 °F 42.6 °F 38% 29.69 in 6.0 mi SSW 26.5 mph 34.5 mph N/A   Haze
6:13 PM 69.8 °F 42.8 °F 38% 29.70 in 7.0 mi SSW 21.9 mph 31.1 mph N/A   Clear
6:58 PM 65.5 °F 45.3 °F 48% 29.71 in 7.0 mi SSW 21.9 mph 27.6 mph N/A   Clear
7:13 PM 64.4 °F 44.6 °F 49% 29.72 in 6.0 mi SSW 23.0 mph 28.8 mph N/A   Haze
7:28 PM 62.6 °F 44.6 °F 52% 29.72 in 7.0 mi SSW 19.6 mph 27.6 mph N/A   Clear
7:58 PM 60.8 °F 41.0 °F 48% 29.73 in 7.0 mi SSW 23.0 mph 33.4 mph N/A   Clear
8:58 PM 57.9 °F 41.2 °F 54% 29.75 in 9.0 mi SSW 19.6 mph 27.6 mph N/A   Clear
9:58 PM 56.5 °F 40.6 °F 55% 29.76 in 9.0 mi SSW 16.1 mph 21.9 mph N/A   Clear
10:58 PM 55.4 °F 41.7 °F 60% 29.76 in 9.0 mi SW 13.8 mph - N/A   Clear
11:58 PM 55.0 °F 42.6 °F 63% 29.74 in 10.0 mi SSW 17.3 mph - N/A   Clear